Weather History for CZFS - December, 2012

Change the Weather History Date:

Sunday, December 2, 2012

  Actual Average Record
Temperature  
Mean Temperature -8 °F -  
Max Temperature -4 °F - - ()
Min Temperature -11 °F - - ()
Degree Days  
Heating Degree Days 72    
Moisture  
Dew Point -12 °F    
Average Humidity 82    
Maximum Humidity 84    
Minimum Humidity 73    
Precipitation  
Precipitation 0.08 in - - ()
Sea Level Pressure  
Sea Level Pressure 29.95 in    
Wind  
Wind Speed 2 mph ()    
Max Wind Speed 6 mph    
Max Gust Speed -    
T = Trace of Precipitation, MM = Missing Value Source: Averaged Metar Reports

Daily Weather History Graph

Daily Weather History Graph

Search for Another Location

Airport or City:

Trip Planner

Search our weather history database for the weather conditions in past years. The results will help you decide how hot, cold, wet, or windy it might be!

Date:

Astronomy

Dec. 02, 2012 Rise Set
Actual Time 9:59 AM MST 3:49 PM MST
Civil Twilight 8:59 AM MST 4:49 PM MST
Nautical Twilight 7:59 AM MST 5:49 PM MST
Astronomical Twilight 7:06 AM MST 6:42 PM MST
Moon 8:20 PM MST (12/2) 12:18 PM MST (12/2)
Length of Visible Light 7h 50m
Length of Day
5h 49m
Waning Gibbous, 85% of the Moon is Illuminated
Dec 2
Waning Gibbous
Dec 6
Last Quarter
Dec 13
New
Dec 19
First Quarter
Dec 28
Full

Hourly Weather History & Observations

Time (MST) Temp. Windchill Dew Point Humidity Pressure Visibility Wind Dir Wind Speed Gust Speed Precip Events Conditions
12:00 AM -7.4 °F -16.3 °F -11.2 °F 84% 30.01 in - ESE 3.5 mph - N/A   Unknown
1:00 AM -7.8 °F -16.7 °F -11.7 °F 83% 29.99 in - East 3.5 mph - N/A   Unknown
3:00 AM -7.2 °F - -11.0 °F 84% 29.97 in - ESE 2.3 mph - N/A   Unknown
4:00 AM -6.9 °F - -10.7 °F 84% 29.96 in - East 2.3 mph - N/A   Unknown
5:00 AM -7 °F - -11 °F 76% 29.95 in - ESE 2.3 mph - -  
5:00 AM -6.9 °F - -10.7 °F 84% 29.95 in - ESE 2.3 mph - N/A   Unknown
6:00 AM -6.5 °F - -10.3 °F 84% 29.93 in - ENE 2.3 mph - 0.02 in   Unknown
7:00 AM -6.3 °F - -9.9 °F 84% 29.93 in - NE 1.2 mph - 0.01 in   Unknown
8:00 AM -6.0 °F - -9.6 °F 84% 29.92 in - NE 1.2 mph - 0.02 in   Unknown
9:00 AM -5.8 °F - -9.4 °F 84% 29.92 in - East 1.2 mph - 0.02 in   Unknown
10:00 AM -7.2 °F - -11.0 °F 84% 29.91 in - Calm Calm - N/A   Unknown
11:00 AM -6 °F - -10 °F 76% 29.92 in - ENE 1.2 mph - -  
11:00 AM -6.0 °F - -9.6 °F 84% 29.92 in - ENE 1.2 mph - 0.01 in   Unknown
12:00 PM -11.2 °F - -15.2 °F 83% 29.93 in - NNW 2.3 mph - N/A   Unknown
1:00 PM -10.3 °F - -14.3 °F 83% 29.92 in - Calm Calm - N/A   Unknown
2:00 PM -4.7 °F - -8.3 °F 84% 29.90 in - ENE 1.2 mph - N/A   Unknown
3:00 PM -6.9 °F -19.7 °F -10.7 °F 84% 29.91 in - NNW 5.8 mph - 0.01 in   Unknown
4:00 PM -9.2 °F -20.7 °F -13.2 °F 83% 29.93 in - NNW 4.6 mph - N/A   Unknown
5:00 PM -9 °F - -13 °F 73% 29.94 in - NNW 3.5 mph - -  
5:00 PM -9.4 °F -18.6 °F -13.0 °F 84% 29.94 in - NNW 3.5 mph - N/A   Unknown
6:00 PM -8.9 °F - -12.6 °F 83% 29.95 in - North 1.2 mph - N/A   Unknown
7:00 PM -11.9 °F - -16.1 °F 82% 29.96 in - North 2.3 mph - N/A   Unknown
8:00 PM -11.4 °F -20.8 °F -15.2 °F 83% 29.98 in - NNW 3.5 mph - N/A   Unknown
9:00 PM -9.6 °F -18.8 °F -13.4 °F 83% 29.99 in - NNW 3.5 mph - N/A   Unknown
10:00 PM -9.2 °F -20.7 °F -13.2 °F 83% 30.00 in - NNW 4.6 mph - N/A   Unknown
11:00 PM -10 °F - -14 °F 74% 30.02 in - NNW 5.8 mph - -  
11:00 PM -9.8 °F -23.1 °F -13.9 °F 82% 30.02 in - NNW 5.8 mph - N/A   Unknown